{"data":{"norad_id":57477,"epoch":"2026-09-20T15:08:18.776832Z","epoch_age_seconds":116296,"freshness":"FRESH","line1":"1 57477U 23107W   26263.63077288  .00010964  00000+0  40722-3 0  9990","line2":"2 57477  43.0027 314.9357 0001352 267.7052  92.3645 15.27591796174968","mean_motion":15.27591796,"eccentricity":0.0001352,"inclination_deg":43.0027,"raan_deg":314.9357,"arg_perigee_deg":267.7052,"mean_anomaly_deg":92.3645,"bstar":0.00040722,"rev_number":17496,"period_min":94.266020789758,"perigee_km":482.0861472146,"apogee_km":483.94140238411,"semimajor_km":6861.1507747994,"source":"CELESTRAK","updated_at":"2026-09-21T09:00:33.631797Z"}}